Location: Elstree
(51.6403°N, 0.2969°W)
Time: 08:31:42
(UTC+00:00)

USA 306 - Visible Passes

Search period start: 21 June 2021 00:00
Search period end: 01 July 2021 00:00
Orbit: 565 x 575 km, 54.0° (Epoch: 11 May)

Date Brightness Start Highest point End Pass type
(mag) Time Alt. Az. Time Alt. Az. Time Alt. Az.
21 Jun 3.7 01:32:46 19° SSW 01:35:10 35° SE 01:39:03 10° ENE visible
21 Jun 5.1 23:57:20 11° SE 23:57:20 11° SE 23:58:26 10° ESE visible
22 Jun 3.3 01:33:22 19° SSW 01:36:09 46° SSE 01:40:15 10° ENE visible
22 Jun 4.6 23:57:52 16° SE 23:57:54 16° SE 00:00:33 10° E visible
23 Jun 3.0 01:33:55 16° SW 01:37:11 60° SSE 01:41:23 10° ENE visible
23 Jun 4.2 23:58:19 22° SE 23:58:46 22° SE 00:02:06 10° E visible
24 Jun 2.8 01:34:21 12° WSW 01:38:14 76° SSE 01:42:29 10° ENE visible
24 Jun 3.8 23:58:40 27° SSE 23:59:41 30° SE 00:03:25 10° E visible
25 Jun 2.9 01:35:03 10° WSW 01:39:19 89° NNW 01:43:36 10° ENE visible
25 Jun 3.4 23:58:50 26° SSW 00:00:39 40° SE 00:04:38 10° ENE visible
26 Jun 3.0 01:36:10 10° WSW 01:40:26 77° NNW 01:44:41 10° ENE visible
26 Jun 4.7 22:22:48 13° SE 22:22:48 13° SE 22:24:35 10° E visible
26 Jun 3.0 23:58:47 19° SW 00:01:38 53° SSE 00:05:47 10° ENE visible
27 Jun 3.2 01:37:18 10° W 01:41:33 69° N 01:45:48 10° ENE visible
27 Jun 4.3 22:22:22 18° SSE 22:23:17 19° SE 22:26:18 10° E visible
27 Jun 2.8 23:58:25 10° SW 00:02:39 68° SSE 00:06:53 10° ENE visible
28 Jun 3.3 01:38:27 10° W 01:42:41 64° N 01:46:55 10° ENE visible
28 Jun 3.9 22:21:00 12° SSW 22:24:10 26° SE 22:27:43 10° E visible
28 Jun 2.8 23:59:27 10° WSW 00:03:42 83° SSE 00:07:59 10° ENE visible
29 Jun 3.4 01:39:36 10° W 01:43:50 62° N 01:48:04 10° E visible
29 Jun 3.5 22:21:12 10° SSW 22:25:05 34° SE 22:28:57 10° ENE visible
30 Jun 2.9 00:00:31 10° WSW 00:04:47 83° NNW 00:09:04 10° ENE visible
30 Jun 3.4 01:40:44 10° WNW 01:44:58 63° N 01:49:12 10° E visible
30 Jun 3.1 22:21:57 10° SW 22:26:02 46° SSE 22:30:07 10° ENE visible
